| time (UTC) | temp F | wind direction | speed MPH | gust MPH | rain 1hr in | rain 24hr in | rain mn in | humidity % | barometer mb |
| 20260505034602 | 75 | 149 | 6.0 | 17.0 | 0.00 | 0.00 | 0.00 | 65 | 1041.3 |
| 20260505033102 | 75 | 234 | 11.0 | 15.0 | 0.00 | 0.00 | 0.00 | 64 | 1041.3 |
| 20260505031603 | 76 | 200 | 16.0 | 25.0 | 0.00 | 0.00 | 0.00 | 63 | 1041.0 |
| 20260505030103 | 76 | 133 | 10.0 | 14.0 | 0.00 | 0.00 | 0.00 | 63 | 1041.0 |
| 20260505024602 | 76 | 213 | 16.0 | 23.0 | 0.00 | 0.00 | 0.00 | 62 | 1040.3 |
| 20260505023102 | 76 | 131 | 10.0 | 18.0 | 0.00 | 0.00 | 0.00 | 61 | 1040.6 |
| 20260505021602 | 77 | 101 | 9.0 | 18.0 | 0.00 | 0.00 | 0.00 | 61 | 1040.3 |
| 20260505014603 | 78 | 129 | 13.0 | 17.0 | 0.00 | 0.00 | 0.00 | 58 | 1040.6 |
| 20260505013602 | 78 | 165 | 11.0 | 17.0 | 0.00 | 0.00 | 0.00 | 57 | 1040.6 |
| 20260505012103 | 79 | 206 | 15.0 | 18.0 | 0.00 | 0.00 | 0.00 | 57 | 1040.6 |
| 20260505010602 | 79 | 216 | 16.0 | 16.0 | 0.00 | 0.00 | 0.00 | 57 | 1041.0 |
| 20260505005102 | 79 | 173 | 7.0 | 17.0 | 0.00 | 0.00 | 0.00 | 55 | 1041.0 |
| 20260505003602 | 80 | 222 | 8.0 | 15.0 | 0.00 | 0.00 | 0.00 | 54 | 1041.0 |
| 20260505002102 | 80 | 189 | 9.0 | 16.0 | 0.00 | 0.00 | 0.00 | 53 | 1041.3 |
| 20260505000602 | 81 | 105 | 8.0 | 17.0 | 0.00 | 0.00 | 0.00 | 52 | 1041.3 |
| 20260504235102 | 81 | 185 | 15.0 | 19.0 | 0.00 | 0.00 | 0.00 | 51 | 1041.3 |
| 20260504233602 | 82 | 157 | 8.0 | 17.0 | 0.00 | 0.00 | 0.00 | 51 | 1041.3 |
| 20260504230603 | 82 | 209 | 6.0 | 14.0 | 0.00 | 0.00 | 0.00 | 50 | 1042.0 |
| 20260504225602 | 81 | 197 | 6.0 | 19.0 | 0.00 | 0.00 | 0.00 | 50 | 1042.0 |
| 20260504224102 | 81 | 187 | 10.0 | 15.0 | 0.00 | 0.00 | 0.00 | 49 | 1042.3 |
| 20260504222602 | 82 | 169 | 14.0 | 14.0 | 0.00 | 0.00 | 0.00 | 49 | 1042.3 |
| 20260504221103 | 82 | 229 | 6.0 | 16.0 | 0.00 | 0.00 | 0.00 | 49 | 1042.7 |
| 20260504215602 | 81 | 205 | 11.0 | 14.0 | 0.00 | 0.00 | 0.00 | 48 | 1042.7 |
| 20260504214102 | 82 | 168 | 19.0 | 19.0 | 0.00 | 0.00 | 0.00 | 47 | 1042.7 |
| 20260504212602 | 82 | 190 | 7.0 | 14.0 | 0.00 | 0.00 | 0.00 | 47 | 1043.0 |
| 20260504205602 | 82 | 345 | 14.0 | 19.0 | 0.00 | 0.00 | 0.00 | 45 | 1043.3 |
| 20260504204602 | 82 | 168 | 8.0 | 21.0 | 0.00 | 0.00 | 0.00 | 44 | 1043.7 |
| 20260504203102 | 83 | 187 | 9.0 | 19.0 | 0.00 | 0.00 | 0.00 | 43 | 1043.7 |
| 20260504201602 | 83 | 231 | 17.0 | 18.0 | 0.00 | 0.00 | 0.00 | 43 | 1044.0 |
| 20260504194603 | 83 | 182 | 8.0 | 20.0 | 0.00 | 0.00 | 0.00 | 43 | 1044.4 |
| 20260504191602 | 82 | 277 | 13.0 | 17.0 | 0.00 | 0.00 | 0.00 | 42 | 1045.0 |
| 20260504184602 | 81 | 213 | 6.0 | 20.0 | 0.00 | 0.00 | 0.00 | 43 | 1045.4 |
| 20260504183102 | 80 | 177 | 7.0 | 22.0 | 0.00 | 0.00 | 0.00 | 44 | 1045.7 |
| 20260504174602 | 81 | 205 | 15.0 | 18.0 | 0.00 | 0.00 | 0.00 | 42 | 1046.4 |
| 20260504173102 | 81 | 124 | 14.0 | 15.0 | 0.00 | 0.00 | 0.00 | 42 | 1046.4 |
| 20260504171602 | 79 | 175 | 17.0 | 17.0 | 0.00 | 0.00 | 0.00 | 42 | 1046.4 |
| 20260504140103 | 69 | 226 | 12.0 | 20.0 | 0.00 | 0.00 | 0.00 | 50 | 1048.1 |
| 20260504100103 | 65 | 210 | 7.0 | 14.0 | 0.00 | 0.00 | 0.00 | 50 | 1048.4 |
| 20260504081603 | 67 | 262 | 9.0 | 15.0 | 0.00 | 0.00 | 0.00 | 45 | 1049.4 |